TimeMDT,TemperatureF,Dew PointF,Humidity,Sea Level PressureIn,VisibilityMPH,Wind Direction,Wind SpeedMPH,Gust SpeedMPH,PrecipitationIn,Events,Conditions,WindDirDegrees,DateUTC
12:54 AM,39.0,30.0,70,30.10,10.0,West,5.8,-,N/A,,Clear,260,2014-04-08 06:54:00
1:54 AM,37.9,28.9,70,30.09,10.0,Calm,Calm,-,N/A,,Clear,0,2014-04-08 07:54:00
2:54 AM,36.0,28.9,76,30.06,10.0,Calm,Calm,-,N/A,,Clear,0,2014-04-08 08:54:00
4:54 AM,37.9,28.9,70,30.04,10.0,SW,8.1,-,N/A,,Clear,220,2014-04-08 10:54:00
5:54 AM,43.0,30.0,60,30.01,10.0,SW,11.5,-,N/A,,Clear,220,2014-04-08 11:54:00
6:54 AM,43.0,30.0,60,30.03,10.0,SW,15.0,-,N/A,,Clear,230,2014-04-08 12:54:00
7:54 AM,45.0,30.0,56,30.03,10.0,SW,13.8,-,N/A,,Clear,230,2014-04-08 13:54:00
8:54 AM,51.1,30.9,46,30.02,10.0,SW,15.0,-,N/A,,Clear,230,2014-04-08 14:54:00
9:54 AM,55.9,30.9,39,30.00,10.0,WSW,21.9,-,N/A,,Clear,240,2014-04-08 15:54:00
12:54 PM,62.1,27.0,26,29.98,10.0,WSW,19.6,27.6,N/A,,Clear,250,2014-04-08 18:54:00
1:54 PM,64.0,25.0,23,29.94,10.0,West,24.2,35.7,N/A,,Clear,270,2014-04-08 19:54:00
2:54 PM,66.0,25.0,21,29.92,10.0,West,28.8,34.5,N/A,,Clear,270,2014-04-08 20:54:00
4:54 PM,68.0,21.9,17,29.85,10.0,West,16.1,28.8,N/A,,Clear,280,2014-04-08 22:54:00
5:54 PM,66.9,23.0,19,29.83,10.0,West,17.3,31.1,N/A,,Clear,280,2014-04-08 23:54:00
6:54 PM,62.1,28.9,29,29.84,10.0,West,13.8,-,N/A,,Unknown,260,2014-04-09 00:54:00
7:54 PM,57.0,28.9,34,29.84,10.0,WSW,11.5,-,N/A,,Clear,240,2014-04-09 01:54:00
8:54 PM,54.0,28.9,38,29.83,10.0,WSW,17.3,-,N/A,,Clear,250,2014-04-09 02:54:00
9:54 PM,55.0,28.9,37,29.82,10.0,WSW,17.3,-,N/A,,Clear,250,2014-04-09 03:54:00
10:54 PM,55.0,27.0,34,29.80,10.0,West,17.3,-,N/A,,Clear,270,2014-04-09 04:54:00
11:54 PM,51.1,28.9,43,29.79,10.0,WSW,15.0,-,N/A,,Clear,250,2014-04-09 05:54:00